CW4226 Weather Reports


time (UTC)temp
C
wind
direction
speed
KPH
gust
KPH
rain 1hr
cm
rain 24hr
cm
rain mn
cm
humidity
%
barometer
mb
20260504100442 2 54 3.2 4.8 0.00 0.00 0.00 75 1008.1
20260504081840 3 62 3.2 4.8 0.00 0.00 0.00 69 1008.4
20260504081554 4 92 0.0 1.6 0.00 0.00 0.00 68 1007.5
20260504081337 4 62 3.2 6.4 0.00 0.00 0.00 69 1008.6
20260504080833 4 66 3.2 4.8 0.00 0.00 0.00 68 1008.2
20260504080331 4 70 3.2 4.8 0.00 0.00 0.00 69 1008.3
20260504070258 6 67 3.2 3.2 0.00 0.00 0.00 61 1008.1
20260504060218 9 61 1.6 3.2 0.00 0.00 0.00 46 1008.2
20260504050646 6 72 3.2 4.8 0.00 0.00 0.00 63 1008.3
20260504050143 5 66 3.2 4.8 0.00 0.00 0.00 62 1008.2
20260504045640 6 41 3.2 4.8 0.00 0.00 0.00 61 1008.2
20260504045140 6 68 3.2 4.8 0.00 0.00 0.00 60 1008.2
20260504044638 5 72 3.2 4.8 0.00 0.00 0.00 63 1008.2
20260504044555 6 116 0.0 4.8 0.00 0.00 0.00 64 1007.2
20260504044135 6 50 4.8 6.4 0.00 0.00 0.00 61 1008.2
20260504043632 6 69 4.8 4.8 0.00 0.00 0.00 58 1008.3
20260504043129 5 68 3.2 4.8 0.00 0.00 0.00 63 1008.3
20260504043055 6 74 1.6 3.2 0.00 0.00 0.00 63 1007.1
20260504042626 5 44 3.2 4.8 0.00 0.00 0.00 62 1008.0
20260504042123 5 55 3.2 4.8 0.00 0.00 0.00 63 1007.9
20260504041618 6 80 3.2 4.8 0.00 0.00 0.00 62 1008.0
20260504041115 6 35 1.6 4.8 0.00 0.00 0.00 60 1007.9
20260504040612 6 52 4.8 4.8 0.00 0.00 0.00 60 1007.8
20260504040109 6 54 3.2 4.8 0.00 0.00 0.00 61 1007.9
20260504040054 6 72 0.0 3.2 0.00 0.00 0.00 62 1007.0
20260504035606 6 70 1.6 4.8 0.00 0.00 0.00 61 1008.0
20260504035102 6 46 3.2 6.4 0.00 0.00 0.00 59 1007.8
20260504034600 6 48 3.2 4.8 0.00 0.00 0.00 60 1007.9
20260504034556 6 92 0.0 3.2 0.00 0.00 0.00 61 1007.0
20260504034057 6 63 3.2 6.4 0.00 0.00 0.00 60 1007.9
20260504033555 6 66 4.8 4.8 0.00 0.00 0.00 59 1008.0
20260504033052 5 64 3.2 4.8 0.00 0.00 0.00 60 1008.0
20260504032549 5 63 3.2 4.8 0.00 0.00 0.00 63 1007.9
20260504032045 5 69 3.2 4.8 0.00 0.00 0.00 66 1007.8
20260504031542 5 66 4.8 6.4 0.00 0.00 0.00 66 1007.8
20260504031038 5 46 4.8 6.4 0.00 0.00 0.00 67 1007.8
20260504030536 5 62 3.2 4.8 0.00 0.00 0.00 67 1007.9
20260504030054 5 53 0.0 3.2 0.00 0.00 0.00 66 1007.1
20260504030032 5 77 1.6 4.8 0.00 0.00 0.00 66 1007.9
20260504025530 5 58 3.2 4.8 0.00 0.00 0.00 65 1007.9
20260504025026 5 76 0.0 6.4 0.00 0.00 0.00 65 1007.8
20260504024523 5 77 3.2 4.8 0.00 0.00 0.00 65 1007.9
20260504024020 5 67 3.2 4.8 0.00 0.00 0.00 64 1007.8
20260504023517 5 42 4.8 4.8 0.00 0.00 0.00 65 1008.0
20260504023055 6 41 0.0 1.6 0.00 0.00 0.00 65 1007.1
20260504023012 5 66 3.2 3.2 0.00 0.00 0.00 66 1008.0
20260504022508 5 49 3.2 4.8 0.00 0.00 0.00 64 1007.8
20260504022005 6 45 3.2 4.8 0.00 0.00 0.00 64 1007.9
20260504021554 6 39 0.0 1.6 0.00 0.00 0.00 63 1007.0
20260504021503 6 56 3.2 4.8 0.00 0.00 0.00 64 1008.0
20260504020959 6 47 4.8 4.8 0.00 0.00 0.00 65 1007.8
20260504020456 6 64 3.2 4.8 0.00 0.00 0.00 63 1008.0
20260504020054 7 40 0.0 0.0 0.00 0.00 0.00 61 1007.1
20260504015953 6 54 3.2 3.2 0.00 0.00 0.00 62 1008.1
20260504015449 6 61 3.2 4.8 0.00 0.00 0.00 62 1007.8
20260504014945 6 54 3.2 3.2 0.00 0.00 0.00 62 1007.9
20260504014554 7 40 0.0 3.2 0.00 0.00 0.00 60 1007.1
20260504014441 6 51 3.2 4.8 0.00 0.00 0.00 62 1007.9
20260504013938 6 64 3.2 4.8 0.00 0.00 0.00 60 1007.8
20260504013437 7 54 3.2 4.8 0.00 0.00 0.00 60 1007.8
20260504012932 7 63 3.2 4.8 0.00 0.00 0.00 59 1007.7
20260504012431 7 61 3.2 3.2 0.00 0.00 0.00 59 1007.6
20260504011928 7 53 1.6 4.8 0.00 0.00 0.00 58 1007.8
20260504011555 8 5 0.0 1.6 0.00 0.00 0.00 55 1006.7
20260504011425 7 69 3.2 4.8 0.00 0.00 0.00 57 1007.7
20260504010920 7 64 3.2 4.8 0.00 0.00 0.00 57 1007.7
20260504010416 8 66 3.2 3.2 0.00 0.00 0.00 56 1007.6
20260504010054 9 5 0.0 1.6 0.00 0.00 0.00 52 1006.6
20260504005913 8 57 3.2 3.2 0.00 0.00 0.00 55 1007.7
20260504005409 8 51 3.2 4.8 0.00 0.00 0.00 54 1007.3
20260504004908 8 54 3.2 4.8 0.00 0.00 0.00 53 1007.5
20260504004405 8 68 3.2 4.8 0.00 0.00 0.00 52 1007.5
20260504003901 9 59 3.2 4.8 0.00 0.00 0.00 50 1007.4
20260504003358 9 64 3.2 4.8 0.00 0.00 0.00 49 1007.4
20260504002854 10 74 3.2 4.8 0.00 0.00 0.00 46 1007.3
20260504002351 10 63 3.2 3.2 0.00 0.00 0.00 44 1007.5
20260504001849 10 61 3.2 4.8 0.00 0.00 0.00 43 1007.1
20260504001555 11 345 0.0 1.6 0.00 0.00 0.00 40 1006.1
20260504001346 11 63 3.2 3.2 0.00 0.00 0.00 40 1007.0
20260504000843 11 52 0.0 4.8 0.00 0.00 0.00 39 1007.0
20260504000340 11 49 3.2 3.2 0.00 0.00 0.00 38 1007.0
20260504000055 12 340 0.0 3.2 0.00 0.00 0.00 37 1006.0
20260503235837 11 43 1.6 3.2 0.00 0.00 0.00 39 1006.9
20260503235335 11 1 1.6 6.4 0.00 0.00 0.00 40 1007.0
20260503234832 12 65 1.6 3.2 0.00 0.00 0.00 39 1006.9
20260503234555 12 234 0.0 1.6 0.00 0.00 0.00 36 1005.9
20260503234330 12 43 1.6 3.2 0.00 0.00 0.00 37 1006.9
20260503233828 12 55 3.2 3.2 0.00 0.00 0.00 38 1006.9
20260503233323 12 46 3.2 3.2 0.00 0.00 0.00 39 1006.7
20260503233055 12 234 0.0 3.2 0.00 0.00 0.00 36 1005.9
20260503232820 12 63 3.2 3.2 0.00 0.00 0.00 37 1006.7
20260503232318 12 53 3.2 3.2 0.00 0.00 0.00 41 1006.9
20260503231815 12 36 0.0 3.2 0.00 0.00 0.00 41 1006.8
20260503231555 12 234 1.6 4.8 0.00 0.00 0.00 38 1005.9
20260503231312 12 246 0.0 1.6 0.00 0.00 0.00 39 1006.9
20260503230808 12 37 0.0 1.6 0.00 0.00 0.00 37 1006.9
20260503230305 12 324 0.0 6.4 0.00 0.00 0.00 37 1006.9
20260503230055 12 152 0.0 4.8 0.00 0.00 0.00 39 1005.9
20260503225803 12 44 0.0 3.2 0.00 0.00 0.00 38 1006.8
20260503225258 12 47 3.2 3.2 0.00 0.00 0.00 38 1006.4
20260503224755 12 52 3.2 3.2 0.00 0.00 0.00 37 1006.8
20260503224555 12 237 0.0 3.2 0.00 0.00 0.00 38 1005.9
20260503224252 12 55 3.2 3.2 0.00 0.00 0.00 38 1006.8
20260503223750 12 58 0.0 3.2 0.00 0.00 0.00 38 1006.7
20260503223247 12 44 0.0 3.2 0.00 0.00 0.00 37 1007.0
20260503223055 13 161 1.6 4.8 0.00 0.00 0.00 37 1005.9
20260503222743 12 216 0.0 4.8 0.00 0.00 0.00 40 1006.9
20260503222241 12 61 3.2 3.2 0.00 0.00 0.00 37 1006.7
20260503221740 12 53 1.6 3.2 0.00 0.00 0.00 37 1006.8
20260503221555 12 239 0.0 3.2 0.00 0.00 0.00 36 1005.9
20260503221237 12 118 0.0 3.2 0.00 0.00 0.00 38 1007.0
20260503220733 13 51 1.6 3.2 0.00 0.00 0.00 38 1006.9
20260503220230 12 81 0.0 4.8 0.00 0.00 0.00 38 1006.8
20260503220055 13 222 1.6 4.8 0.00 0.00 0.00 36 1005.9
20260503215727 12 49 3.2 3.2 0.00 0.00 0.00 38 1006.7
20260503215224 12 93 0.0 3.2 0.00 0.00 0.00 39 1006.7
20260503214722 13 46 3.2 3.2 0.00 0.00 0.00 38 1006.8
20260503214555 13 175 1.6 9.7 0.00 0.00 0.00 37 1005.9
20260503214219 13 58 3.2 6.4 0.00 0.00 0.00 36 1006.9
20260503213717 13 55 3.2 4.8 0.00 0.00 0.00 35 1006.7
20260503213214 13 21 3.2 6.4 0.00 0.00 0.00 37 1006.8
20260503212710 13 65 0.0 4.8 0.00 0.00 0.00 37 1006.7
20260503212208 13 274 3.2 6.4 0.00 0.00 0.00 37 1006.7
20260503211706 13 93 1.6 6.4 0.00 0.00 0.00 36 1006.6
20260503211555 13 329 1.6 4.8 0.00 0.00 0.00 35 1005.7
20260503211201 13 97 3.2 6.4 0.00 0.00 0.00 34 1006.7
20260503210657 13 37 3.2 4.8 0.00 0.00 0.00 36 1006.6
20260503210155 13 71 4.8 11.3 0.00 0.00 0.00 34 1006.4
20260503210054 13 26 3.2 11.3 0.00 0.00 0.00 32 1005.6
20260503205650 13 67 3.2 4.8 0.00 0.00 0.00 33 1006.7
20260503205146 14 76 4.8 4.8 0.00 0.00 0.00 32 1006.6
20260503204643 14 235 0.0 4.8 0.00 0.00 0.00 34 1006.8
20260503204555 13 177 1.6 11.3 0.00 0.00 0.00 31 1005.7
20260503204141 14 138 3.2 6.4 0.00 0.00 0.00 34 1006.7
20260503203637 14 269 0.0 16.1 0.00 0.00 0.00 34 1006.7
20260503203135 14 118 1.6 4.8 0.00 0.00 0.00 36 1006.6
20260503203055 13 220 1.6 4.8 0.00 0.00 0.00 35 1005.8
20260503202632 13 89 0.0 6.4 0.00 0.00 0.00 33 1006.8
20260503202131 13 297 1.6 3.2 0.00 0.00 0.00 33 1006.7
20260503201628 13 71 3.2 6.4 0.00 0.00 0.00 33 1006.7
20260503201555 13 105 1.6 9.7 0.00 0.00 0.00 30 1005.9
20260503201125 13 67 1.6 3.2 0.00 0.00 0.00 34 1006.9
20260503200621 14 100 3.2 6.4 0.00 0.00 0.00 30 1006.8
20260503200118 14 88 3.2 12.9 0.00 0.00 0.00 34 1006.9
20260503200054 14 239 3.2 9.7 0.00 0.00 0.00 32 1005.8
20260503195615 14 66 3.2 4.8 0.00 0.00 0.00 34 1007.1
20260503195112 13 79 1.6 9.7 0.00 0.00 0.00 32 1007.0
20260503194610 13 125 0.0 4.8 0.00 0.00 0.00 29 1007.0
20260503194554 13 169 1.6 8.0 0.00 0.00 0.00 28 1006.0
20260503194110 14 82 8.0 8.0 0.00 0.00 0.00 32 1007.1
20260503193607 15 333 0.0 6.4 0.00 0.00 0.00 30 1007.2
20260503193102 14 296 0.0 4.8 0.00 0.00 0.00 34 1007.2
20260503193055 14 210 1.6 11.3 0.00 0.00 0.00 29 1006.2
20260503192558 15 223 4.8 6.4 0.00 0.00 0.00 33 1007.4
20260503192054 15 255 4.8 4.8 0.00 0.00 0.00 30 1007.3
20260503191555 15 85 1.6 8.0 0.00 0.00 0.00 27 1006.4
20260503191551 15 70 3.2 3.2 0.00 0.00 0.00 31 1007.3
20260503191048 15 234 0.0 8.0 0.00 0.00 0.00 29 1007.6
20260503190545 15 260 3.2 4.8 0.00 0.00 0.00 31 1007.4
20260503190056 15 218 1.6 8.0 0.00 0.00 0.00 35 1006.6
20260503190042 15 82 3.2 4.8 0.00 0.00 0.00 32 1007.6
20260503185538 15 252 4.8 6.4 0.00 0.00 0.00 31 1007.6
20260503185038 15 255 0.0 6.4 0.00 0.00 0.00 31 1007.7
20260503184555 14 243 1.6 9.7 0.00 0.00 0.00 34 1006.9
20260503184534 15 284 3.2 6.4 0.00 0.00 0.00 33 1008.0
20260503184031 15 70 3.2 9.7 0.00 0.00 0.00 31 1008.0
20260503183528 14 251 3.2 6.4 0.00 0.00 0.00 36 1008.1
20260503183055 13 213 4.8 16.1 0.00 0.00 0.00 35 1007.1
20260503183025 14 194 1.6 20.9 0.00 0.00 0.00 33 1008.0
20260503182523 15 282 3.2 4.8 0.00 0.00 0.00 33 1008.2
20260503182021 13 20 3.2 4.8 0.00 0.00 0.00 40 1008.0
20260503181554 13 192 1.6 4.8 0.00 0.00 0.00 32 1007.3
20260503181518 13 33 4.8 8.0 0.00 0.00 0.00 36 1008.2
20260503181014 13 218 1.6 8.0 0.00 0.00 0.00 33 1008.4
20260503180512 14 70 6.4 6.4 0.00 0.00 0.00 32 1008.3
20260503180055 12 262 1.6 9.7 0.00 0.00 0.00 41 1007.5
20260503180009 13 245 1.6 4.8 0.00 0.00 0.00 42 1008.4
20260503175506 12 9 1.6 8.0 0.00 0.00 0.00 41 1008.6
20260503175003 13 56 6.4 8.0 0.00 0.00 0.00 33 1008.7
20260503174555 12 280 3.2 8.0 0.00 0.00 0.00 32 1007.8
20260503174500 12 280 1.6 12.9 0.00 0.00 0.00 38 1008.7
20260503173955 12 237 0.0 6.4 0.00 0.00 0.00 36 1008.9
20260503173451 11 73 4.8 8.0 0.00 0.00 0.00 35 1009.0
20260503173055 12 84 3.2 8.0 0.00 0.00 0.00 34 1008.0
20260503172948 12 128 3.2 11.3 0.00 0.00 0.00 33 1008.8
20260503172446 12 263 1.6 6.4 0.00 0.00 0.00 35 1008.9
20260503171942 12 57 4.8 6.4 0.00 0.00 0.00 36 1009.1
20260503171554 11 353 1.6 8.0 0.00 0.00 0.00 35 1008.3
20260503171439 12 111 6.4 6.4 0.00 0.00 0.00 35 1009.0
20260503170937 12 64 0.0 8.0 0.00 0.00 0.00 35 1009.3
20260503170432 11 44 0.0 6.4 0.00 0.00 0.00 37 1009.2
20260503150825 10 69 1.6 6.4 0.00 0.00 0.00 38 1009.8
20260503150321 10 60 0.0 6.4 0.00 0.00 0.00 37 1010.0
20260503140245 7 60 3.2 3.2 0.00 0.00 0.00 53 1010.1
20260503131215 5 78 3.2 4.8 0.00 0.00 0.00 53 1010.5
20260503130713 6 71 4.8 6.4 0.00 0.00 0.00 53 1010.1
20260503130210 7 73 0.0 3.2 0.00 0.00 0.00 50 1010.5
20260503120135 6 77 0.0 4.8 0.00 0.00 0.00 59 1010.1
20260503110603 2 43 1.6 3.2 0.00 0.00 0.00 71 1009.9